Time,TemperatureF,DewpointF,PressureIn,WindDirection,WindDirectionDegrees,WindSpeedMPH,WindSpeedGustMPH,Humidity,HourlyPrecipIn,Conditions,Clouds,dailyrainin,SoftwareType,DateUTC
2013-07-18 00:12:00,80.0,80.0,-100.00,North,355,0.0,0.0,99,-99.99,,,-99.99,,2013-07-18 04:12:00,
2013-07-18 01:11:00,79.0,78.0,-100.00,North,355,0.0,0.0,99,-99.99,,,-99.99,,2013-07-18 05:11:00,
2013-07-18 01:32:00,79.0,78.0,-100.00,North,355,0.0,0.0,99,-99.99,,,-99.99,,2013-07-18 05:32:00,
2013-07-18 01:42:00,79.0,78.0,-100.00,North,355,0.0,0.0,99,-99.99,,,-99.99,,2013-07-18 05:42:00,
2013-07-18 01:52:00,79.0,78.0,-100.00,North,355,0.0,0.0,99,-99.99,,,-99.99,,2013-07-18 05:52:00,
2013-07-18 02:32:00,78.0,77.0,-100.00,North,355,0.0,0.0,99,-99.99,,,-99.99,,2013-07-18 06:32:00,
2013-07-18 02:43:00,78.0,77.0,-100.00,North,355,0.0,0.0,99,-99.99,,,-99.99,,2013-07-18 06:43:00,
2013-07-18 02:52:00,78.0,77.0,-100.00,North,355,0.0,0.0,99,-99.99,,,-99.99,,2013-07-18 06:52:00,
2013-07-18 04:32:00,76.0,76.0,-100.00,North,355,0.0,0.0,99,-99.99,,,-99.99,,2013-07-18 08:32:00,
2013-07-18 04:42:00,76.0,76.0,-100.00,North,355,0.0,0.0,99,-99.99,,,-99.99,,2013-07-18 08:42:00,
2013-07-18 04:51:00,76.0,76.0,-100.00,North,355,0.0,0.0,99,-99.99,,,-99.99,,2013-07-18 08:51:00,
2013-07-18 05:32:00,76.0,76.0,-100.00,North,355,0.0,0.0,99,-99.99,,,-99.99,,2013-07-18 09:32:00,
2013-07-18 05:41:00,76.0,76.0,-100.00,North,355,0.0,0.0,99,-99.99,,,-99.99,,2013-07-18 09:41:00,
2013-07-18 05:51:00,76.0,76.0,-100.00,North,355,0.0,0.0,99,-99.99,,,-99.99,,2013-07-18 09:51:00,
2013-07-18 07:32:00,74.0,74.0,-100.00,North,355,0.0,0.0,99,-99.99,,,-99.99,,2013-07-18 11:32:00,
2013-07-18 07:43:00,74.0,74.0,-100.00,North,355,0.0,0.0,99,-99.99,,,-99.99,,2013-07-18 11:43:00,
2013-07-18 07:52:00,74.0,74.0,-100.00,North,355,0.0,0.0,99,-99.99,,,-99.99,,2013-07-18 11:52:00,
2013-07-18 08:52:00,77.0,77.0,-100.00,North,355,0.0,0.0,99,-99.99,,,-99.99,,2013-07-18 12:52:00,
2013-07-18 12:50:00,92.0,80.0,-100.00,North,355,0.0,0.0,69,-99.99,,,-99.99,,2013-07-18 16:50:00,
2013-07-18 13:11:00,92.0,80.0,-100.00,North,355,0.0,0.0,69,-99.99,,,-99.99,,2013-07-18 17:11:00,
2013-07-18 13:22:00,92.0,80.0,-100.00,North,355,0.0,0.0,69,-99.99,,,-99.99,,2013-07-18 17:22:00,
2013-07-18 13:33:00,92.0,80.0,-100.00,North,355,0.0,0.0,69,-99.99,,,-99.99,,2013-07-18 17:33:00,
2013-07-18 13:43:00,92.0,80.0,-100.00,North,355,0.0,0.0,69,-99.99,,,-99.99,,2013-07-18 17:43:00,
2013-07-18 14:32:00,92.0,81.0,-100.00,North,355,0.0,0.0,70,-99.99,,,-99.99,,2013-07-18 18:32:00,
2013-07-18 14:43:00,92.0,81.0,-100.00,North,355,0.0,0.0,70,-99.99,,,-99.99,,2013-07-18 18:43:00,
2013-07-18 14:52:00,92.0,81.0,-100.00,North,355,0.0,0.0,70,-99.99,,,-99.99,,2013-07-18 18:52:00,
2013-07-18 15:32:00,93.0,79.0,-100.00,North,355,0.0,0.0,64,-99.99,,,-99.99,,2013-07-18 19:32:00,
2013-07-18 15:43:00,93.0,79.0,-100.00,North,355,0.0,0.0,64,-99.99,,,-99.99,,2013-07-18 19:43:00,
2013-07-18 15:53:00,93.0,79.0,-100.00,North,355,0.0,0.0,64,-99.99,,,-99.99,,2013-07-18 19:53:00,
2013-07-18 16:32:00,93.0,78.0,-100.00,North,355,0.0,0.0,63,-99.99,,,-99.99,,2013-07-18 20:32:00,
2013-07-18 16:43:00,93.0,78.0,-100.00,North,355,0.0,0.0,63,-99.99,,,-99.99,,2013-07-18 20:43:00,
2013-07-18 16:52:00,93.0,78.0,-100.00,North,355,0.0,0.0,63,-99.99,,,-99.99,,2013-07-18 20:52:00,
2013-07-18 17:32:00,93.0,79.0,-100.00,North,355,0.0,0.0,64,-99.99,,,-99.99,,2013-07-18 21:32:00,
2013-07-18 17:43:00,93.0,79.0,-100.00,North,355,0.0,0.0,64,-99.99,,,-99.99,,2013-07-18 21:43:00,
2013-07-18 17:52:00,93.0,79.0,-100.00,North,355,0.0,0.0,64,-99.99,,,-99.99,,2013-07-18 21:52:00,
2013-07-18 18:11:00,92.0,78.0,-100.00,North,355,0.0,0.0,64,-99.99,,,-99.99,,2013-07-18 22:11:00,
2013-07-18 18:22:00,92.0,78.0,-100.00,North,355,0.0,0.0,64,-99.99,,,-99.99,,2013-07-18 22:22:00,
2013-07-18 18:32:00,92.0,78.0,-100.00,North,355,0.0,0.0,64,-99.99,,,-99.99,,2013-07-18 22:32:00,
2013-07-18 18:43:00,92.0,78.0,-100.00,North,355,0.0,0.0,64,-99.99,,,-99.99,,2013-07-18 22:43:00,
2013-07-18 18:53:00,92.0,78.0,-100.00,North,355,0.0,0.0,64,-99.99,,,-99.99,,2013-07-18 22:53:00,
2013-07-18 19:11:00,92.0,76.0,-100.00,North,355,0.0,0.0,59,-99.99,,,-99.99,,2013-07-18 23:11:00,
2013-07-18 19:32:00,91.0,77.0,-100.00,North,355,0.0,0.0,64,-99.99,,,-99.99,,2013-07-18 23:32:00,
2013-07-18 19:42:00,91.0,77.0,-100.00,North,355,0.0,0.0,64,-99.99,,,-99.99,,2013-07-18 23:42:00,
2013-07-18 19:52:00,91.0,77.0,-100.00,North,355,0.0,0.0,64,-99.99,,,-99.99,,2013-07-18 23:52:00,
2013-07-18 21:11:00,88.0,80.0,-100.00,North,355,0.0,0.0,79,-99.99,,,-99.99,,2013-07-19 01:11:00,